| time (UTC) | temp F | wind direction | speed MPH | gust MPH | rain 1hr in | rain 24hr in | rain mn in | humidity % | barometer mb |
| 20260509104832 | 73 | 351 | 2.0 | 5.0 | 0.00 | 0.01 | 0.01 | 88 | 1011.9 |
| 20260509104333 | 73 | 12 | 2.0 | 5.0 | 0.00 | 0.01 | 0.01 | 88 | 1012.0 |
| 20260509103832 | 73 | 10 | 2.0 | 5.0 | 0.00 | 0.01 | 0.01 | 88 | 1012.0 |
| 20260509103333 | 73 | 12 | 1.0 | 5.0 | 0.00 | 0.01 | 0.01 | 88 | 1012.0 |
| 20260509102834 | 73 | 22 | 0.0 | 3.0 | 0.00 | 0.01 | 0.01 | 88 | 1011.8 |
| 20260509102334 | 73 | 24 | 0.0 | 0.0 | 0.00 | 0.01 | 0.01 | 88 | 1011.8 |
| 20260509101831 | 73 | 24 | 0.0 | 0.0 | 0.00 | 0.01 | 0.01 | 88 | 1011.7 |
| 20260509101602 | 73 | 24 | 0.0 | 0.0 | 0.00 | 0.01 | 0.01 | 88 | 1011.5 |
| 20260509100827 | 73 | 24 | 0.0 | 0.0 | 0.00 | 0.01 | 0.01 | 88 | 1011.2 |
| 20260509100326 | 73 | 24 | 0.0 | 0.0 | 0.00 | 0.01 | 0.01 | 88 | 1010.8 |
| 20260509095823 | 73 | 24 | 0.0 | 0.0 | 0.00 | 0.01 | 0.01 | 88 | 1010.5 |
| 20260509095553 | 73 | 24 | 0.0 | 0.0 | 0.01 | 0.01 | 0.01 | 88 | 1010.5 |
| 20260509094820 | 73 | 24 | 0.0 | 0.0 | 0.01 | 0.01 | 0.01 | 88 | 1010.5 |
| 20260509094548 | 73 | 24 | 0.0 | 0.0 | 0.01 | 0.01 | 0.01 | 88 | 1010.6 |
| 20260509093816 | 73 | 24 | 0.0 | 0.0 | 0.01 | 0.01 | 0.01 | 88 | 1010.6 |
| 20260509093316 | 73 | 24 | 0.0 | 0.0 | 0.01 | 0.01 | 0.01 | 88 | 1010.6 |
| 20260509092823 | 73 | 24 | 0.0 | 0.0 | 0.01 | 0.01 | 0.01 | 88 | 1010.6 |
| 20260509092817 | 73 | 24 | 0.0 | 0.0 | 0.01 | 0.01 | 0.01 | 88 | 1010.7 |
| 20260509091815 | 73 | 24 | 0.0 | 0.0 | 0.01 | 0.01 | 0.01 | 88 | 1010.5 |
| 20260509091545 | 73 | 24 | 0.0 | 0.0 | 0.01 | 0.01 | 0.01 | 88 | 1010.4 |
| 20260509091041 | 73 | 24 | 0.0 | 0.0 | 0.01 | 0.01 | 0.01 | 88 | 1010.3 |
| 20260509090303 | 73 | 24 | 0.0 | 0.0 | 0.01 | 0.01 | 0.01 | 88 | 1010.4 |
| 20260509085757 | 73 | 24 | 0.0 | 0.0 | 0.01 | 0.01 | 0.01 | 88 | 1010.4 |
| 20260509085251 | 73 | 24 | 0.0 | 0.0 | 0.00 | 0.00 | 0.00 | 88 | 1010.5 |
| 20260509084745 | 73 | 24 | 0.0 | 0.0 | 0.00 | 0.00 | 0.00 | 88 | 1010.5 |
| 20260509084239 | 73 | 24 | 0.0 | 2.0 | 0.00 | 0.00 | 0.00 | 88 | 1010.6 |
| 20260509083733 | 73 | 24 | 1.0 | 3.0 | 0.00 | 0.00 | 0.00 | 88 | 1010.6 |
| 20260509083227 | 73 | 24 | 1.0 | 4.0 | 0.00 | 0.00 | 0.00 | 88 | 1010.8 |
| 20260509082721 | 73 | 24 | 2.0 | 4.0 | 0.00 | 0.00 | 0.00 | 88 | 1010.9 |
| 20260509082215 | 73 | 17 | 1.0 | 4.0 | 0.00 | 0.00 | 0.00 | 88 | 1010.9 |
| 20260509081709 | 73 | 16 | 1.0 | 4.0 | 0.00 | 0.00 | 0.00 | 88 | 1011.1 |
| 20260509081435 | 73 | 15 | 1.0 | 4.0 | 0.00 | 0.00 | 0.00 | 87 | 1011.2 |
| 20260509080658 | 73 | 14 | 2.0 | 4.0 | 0.00 | 0.00 | 0.00 | 87 | 1011.1 |
| 20260509080152 | 73 | 36 | 1.0 | 4.0 | 0.00 | 0.00 | 0.00 | 87 | 1010.8 |
| 20260509075645 | 73 | 109 | 0.0 | 3.0 | 0.00 | 0.00 | 0.00 | 87 | 1010.7 |
| 20260509075139 | 73 | 134 | 0.0 | 0.0 | 0.00 | 0.00 | 0.00 | 87 | 1010.8 |
| 20260509074634 | 73 | 134 | 1.0 | 3.0 | 0.00 | 0.00 | 0.00 | 87 | 1010.6 |
| 20260509074127 | 73 | 135 | 1.0 | 3.0 | 0.00 | 0.00 | 0.00 | 87 | 1010.7 |
| 20260509073621 | 73 | 150 | 0.0 | 2.0 | 0.00 | 0.00 | 0.00 | 87 | 1010.8 |
| 20260509073114 | 73 | 150 | 0.0 | 1.0 | 0.00 | 0.00 | 0.00 | 87 | 1010.8 |
| 20260509072609 | 73 | 150 | 0.0 | 1.0 | 0.00 | 0.00 | 0.00 | 87 | 1010.8 |
| 20260509072102 | 73 | 150 | 0.0 | 0.0 | 0.00 | 0.00 | 0.00 | 87 | 1010.9 |
| 20260509071557 | 73 | 150 | 0.0 | 1.0 | 0.00 | 0.00 | 0.00 | 87 | 1010.9 |
| 20260509071051 | 73 | 150 | 0.0 | 2.0 | 0.00 | 0.00 | 0.00 | 87 | 1010.9 |
| 20260509070545 | 73 | 150 | 0.0 | 2.0 | 0.00 | 0.00 | 0.00 | 87 | 1011.0 |
| 20260509070039 | 73 | 150 | 0.0 | 1.0 | 0.00 | 0.00 | 0.00 | 87 | 1011.0 |
| 20260509065533 | 73 | 150 | 0.0 | 2.0 | 0.00 | 0.00 | 0.00 | 87 | 1011.0 |
| 20260509065027 | 73 | 150 | 1.0 | 5.0 | 0.00 | 0.00 | 0.00 | 87 | 1011.0 |
| 20260509064521 | 73 | 150 | 1.0 | 5.0 | 0.00 | 0.00 | 0.00 | 87 | 1010.8 |
| 20260509064015 | 74 | 146 | 1.0 | 4.0 | 0.00 | 0.00 | 0.00 | 87 | 1010.6 |
| 20260509063509 | 73 | 145 | 2.0 | 5.0 | 0.00 | 0.00 | 0.00 | 86 | 1010.5 |
| 20260509063003 | 74 | 125 | 1.0 | 5.0 | 0.00 | 0.00 | 0.00 | 86 | 1010.6 |
| 20260509062457 | 74 | 177 | 1.0 | 7.0 | 0.00 | 0.00 | 0.00 | 86 | 1010.6 |
| 20260509061951 | 74 | 132 | 2.0 | 7.0 | 0.00 | 0.00 | 0.00 | 86 | 1010.7 |
| 20260509061451 | 74 | 154 | 2.0 | 6.0 | 0.00 | 0.00 | 0.00 | 86 | 1010.6 |
| 20260509060951 | 74 | 181 | 2.0 | 6.0 | 0.00 | 0.00 | 0.00 | 86 | 1010.6 |
| 20260509060451 | 74 | 164 | 2.0 | 6.0 | 0.00 | 0.00 | 0.00 | 86 | 1010.5 |
| 20260509060219 | 74 | 148 | 3.0 | 9.0 | 0.00 | 0.00 | 0.00 | 86 | 1010.4 |
| 20260509055448 | 74 | 182 | 3.0 | 11.0 | 0.00 | 0.00 | 0.00 | 86 | 1010.3 |
| 20260509054948 | 74 | 155 | 4.0 | 11.0 | 0.00 | 0.00 | 0.00 | 86 | 1010.2 |
| 20260509054449 | 74 | 135 | 3.0 | 8.0 | 0.00 | 0.00 | 0.00 | 86 | 1010.3 |
| 20260509053948 | 74 | 168 | 3.0 | 8.0 | 0.00 | 0.00 | 0.00 | 86 | 1010.4 |
| 20260509053448 | 74 | 154 | 3.0 | 9.0 | 0.00 | 0.00 | 0.00 | 86 | 1010.4 |
| 20260509053221 | 74 | 150 | 3.0 | 9.0 | 0.00 | 0.00 | 0.00 | 86 | 1010.3 |
| 20260509052448 | 74 | 150 | 3.0 | 6.0 | 0.00 | 0.00 | 0.00 | 86 | 1010.3 |
| 20260509051948 | 74 | 167 | 4.0 | 9.0 | 0.00 | 0.00 | 0.00 | 85 | 1010.2 |
| 20260509051447 | 74 | 131 | 4.0 | 9.0 | 0.00 | 0.00 | 0.00 | 85 | 1010.0 |
| 20260509050949 | 74 | 134 | 3.0 | 8.0 | 0.00 | 0.00 | 0.00 | 85 | 1009.8 |
| 20260509050448 | 74 | 136 | 3.0 | 7.0 | 0.00 | 0.00 | 0.00 | 85 | 1009.9 |
| 20260509045948 | 74 | 130 | 4.0 | 8.0 | 0.00 | 0.00 | 0.00 | 85 | 1009.9 |
| 20260509045443 | 74 | 132 | 4.0 | 8.0 | 0.00 | 0.00 | 0.00 | 85 | 1009.8 |
| 20260509044937 | 74 | 156 | 4.0 | 8.0 | 0.00 | 0.00 | 0.00 | 85 | 1009.8 |
| 20260509044431 | 74 | 158 | 4.0 | 9.0 | 0.00 | 0.00 | 0.00 | 85 | 1009.9 |
| 20260509043924 | 74 | 152 | 4.0 | 10.0 | 0.00 | 0.00 | 0.00 | 85 | 1009.9 |
| 20260509043419 | 74 | 150 | 3.0 | 8.0 | 0.00 | 0.00 | 0.00 | 85 | 1009.9 |
| 20260509043144 | 74 | 150 | 3.0 | 8.0 | 0.00 | 0.00 | 0.00 | 85 | 1009.8 |
| 20260509042408 | 74 | 161 | 3.0 | 8.0 | 0.00 | 0.00 | 0.00 | 85 | 1009.9 |
| 20260509041902 | 74 | 146 | 3.0 | 8.0 | 0.00 | 0.00 | 0.00 | 84 | 1010.0 |
| 20260509041355 | 74 | 182 | 3.0 | 8.0 | 0.00 | 0.00 | 0.00 | 84 | 1010.1 |
| 20260509041117 | 74 | 146 | 2.0 | 5.0 | 0.00 | 0.00 | 0.00 | 83 | 1010.2 |
| 20260509040953 | 74 | 169 | 3.0 | 6.0 | 0.00 | 0.00 | 0.00 | 84 | 1010.2 |
| 20260509035837 | 74 | 136 | 2.0 | 5.0 | 0.00 | 0.00 | 0.00 | 83 | 1010.2 |
| 20260509035331 | 74 | 144 | 2.0 | 4.0 | 0.00 | 0.00 | 0.00 | 83 | 1010.2 |
| 20260509034826 | 74 | 145 | 1.0 | 4.0 | 0.00 | 0.00 | 0.00 | 82 | 1010.1 |
| 20260509034319 | 74 | 144 | 0.0 | 2.0 | 0.00 | 0.00 | 0.00 | 82 | 1010.1 |
| 20260509033813 | 74 | 144 | 0.0 | 2.0 | 0.00 | 0.00 | 0.00 | 82 | 1010.1 |
| 20260509033307 | 74 | 144 | 0.0 | 1.0 | 0.00 | 0.00 | 0.00 | 82 | 1010.1 |
| 20260509032801 | 74 | 144 | 0.0 | 2.0 | 0.00 | 0.00 | 0.00 | 82 | 1010.1 |
| 20260509032255 | 74 | 144 | 0.0 | 2.0 | 0.00 | 0.00 | 0.00 | 82 | 1010.1 |
| 20260509031749 | 74 | 144 | 0.0 | 1.0 | 0.00 | 0.00 | 0.00 | 82 | 1010.0 |
| 20260509031242 | 74 | 144 | 1.0 | 4.0 | 0.00 | 0.00 | 0.00 | 82 | 1010.0 |
| 20260509030737 | 74 | 144 | 2.0 | 5.0 | 0.00 | 0.00 | 0.00 | 81 | 1010.0 |
| 20260509030231 | 74 | 142 | 2.0 | 5.0 | 0.00 | 0.00 | 0.00 | 81 | 1009.7 |
| 20260509025725 | 75 | 145 | 1.0 | 4.0 | 0.00 | 0.00 | 0.00 | 81 | 1009.7 |
| 20260509025220 | 75 | 146 | 2.0 | 4.0 | 0.00 | 0.00 | 0.00 | 81 | 1009.7 |
| 20260509024944 | 75 | 146 | 2.0 | 4.0 | 0.00 | 0.00 | 0.00 | 80 | 1009.7 |
| 20260509024206 | 75 | 148 | 1.0 | 3.0 | 0.00 | 0.00 | 0.00 | 80 | 1009.6 |
| 20260509023702 | 75 | 147 | 1.0 | 3.0 | 0.00 | 0.00 | 0.00 | 80 | 1009.7 |
| 20260509023428 | 76 | 147 | 1.0 | 3.0 | 0.00 | 0.00 | 0.00 | 79 | 1009.6 |
| 20260509022649 | 76 | 147 | 1.0 | 3.0 | 0.00 | 0.00 | 0.00 | 79 | 1009.6 |
| 20260509022143 | 76 | 147 | 2.0 | 5.0 | 0.00 | 0.00 | 0.00 | 79 | 1009.6 |
| 20260509021637 | 76 | 147 | 2.0 | 5.0 | 0.00 | 0.00 | 0.00 | 79 | 1009.4 |
| 20260509021131 | 76 | 117 | 1.0 | 4.0 | 0.00 | 0.00 | 0.00 | 79 | 1009.2 |
| 20260509020625 | 76 | 117 | 2.0 | 4.0 | 0.00 | 0.00 | 0.00 | 79 | 1009.2 |
| 20260509020119 | 76 | 136 | 3.0 | 6.0 | 0.00 | 0.00 | 0.00 | 79 | 1009.1 |
| 20260509015613 | 76 | 140 | 3.0 | 6.0 | 0.00 | 0.00 | 0.00 | 79 | 1009.0 |
| 20260509015107 | 76 | 154 | 2.0 | 5.0 | 0.00 | 0.00 | 0.00 | 78 | 1008.9 |
| 20260509014601 | 76 | 144 | 2.0 | 6.0 | 0.00 | 0.00 | 0.00 | 78 | 1008.9 |
| 20260509014055 | 77 | 140 | 3.0 | 6.0 | 0.00 | 0.00 | 0.00 | 78 | 1008.9 |
| 20260509013549 | 77 | 112 | 3.0 | 6.0 | 0.00 | 0.00 | 0.00 | 78 | 1008.9 |
| 20260509013043 | 77 | 137 | 2.0 | 7.0 | 0.00 | 0.00 | 0.00 | 78 | 1008.9 |
| 20260509012537 | 77 | 158 | 2.0 | 7.0 | 0.00 | 0.00 | 0.00 | 77 | 1008.9 |
| 20260509012037 | 77 | 142 | 2.0 | 6.0 | 0.00 | 0.00 | 0.00 | 77 | 1008.9 |
| 20260509011805 | 77 | 150 | 3.0 | 7.0 | 0.00 | 0.00 | 0.00 | 77 | 1008.9 |
| 20260509011039 | 77 | 138 | 3.0 | 7.0 | 0.00 | 0.00 | 0.00 | 76 | 1008.8 |
| 20260509011033 | 77 | 140 | 3.0 | 7.0 | 0.00 | 0.00 | 0.00 | 77 | 1008.8 |
| 20260509010035 | 77 | 150 | 3.0 | 7.0 | 0.00 | 0.00 | 0.00 | 76 | 1008.8 |
| 20260509005535 | 78 | 150 | 2.0 | 5.0 | 0.00 | 0.00 | 0.00 | 76 | 1008.7 |
| 20260509005034 | 78 | 136 | 2.0 | 5.0 | 0.00 | 0.00 | 0.00 | 76 | 1008.6 |
| 20260509004530 | 78 | 155 | 3.0 | 7.0 | 0.00 | 0.00 | 0.00 | 76 | 1008.7 |
| 20260509004030 | 78 | 159 | 3.0 | 7.0 | 0.00 | 0.00 | 0.00 | 75 | 1008.6 |
| 20260509003530 | 78 | 139 | 3.0 | 7.0 | 0.00 | 0.00 | 0.00 | 75 | 1008.6 |
| 20260509003301 | 78 | 182 | 3.0 | 7.0 | 0.00 | 0.00 | 0.00 | 75 | 1008.7 |
| 20260509002532 | 78 | 153 | 3.0 | 8.0 | 0.00 | 0.00 | 0.00 | 75 | 1008.7 |
| 20260509002029 | 78 | 153 | 3.0 | 8.0 | 0.00 | 0.00 | 0.00 | 75 | 1008.7 |
| 20260509001530 | 78 | 140 | 3.0 | 7.0 | 0.00 | 0.00 | 0.00 | 74 | 1008.7 |
| 20260509001303 | 79 | 166 | 3.0 | 7.0 | 0.00 | 0.00 | 0.00 | 74 | 1008.8 |
| 20260509000526 | 79 | 153 | 3.0 | 9.0 | 0.00 | 0.00 | 0.00 | 74 | 1008.9 |
| 20260509000026 | 79 | 146 | 3.0 | 9.0 | 0.00 | 0.00 | 0.00 | 74 | 1008.9 |
| 20260508235757 | 79 | 188 | 4.0 | 8.0 | 0.00 | 0.00 | 0.00 | 74 | 1008.8 |
| 20260508235026 | 79 | 180 | 4.0 | 10.0 | 0.00 | 0.00 | 0.00 | 74 | 1008.8 |
| 20260508234527 | 79 | 122 | 4.0 | 10.0 | 0.00 | 0.00 | 0.00 | 73 | 1008.8 |
| 20260508234026 | 79 | 148 | 4.0 | 8.0 | 0.00 | 0.00 | 0.00 | 73 | 1008.8 |
| 20260508233526 | 79 | 151 | 4.0 | 10.0 | 0.00 | 0.00 | 0.00 | 73 | 1008.8 |
| 20260508233026 | 79 | 150 | 3.0 | 10.0 | 0.00 | 0.00 | 0.00 | 73 | 1008.8 |
| 20260508232527 | 80 | 152 | 3.0 | 11.0 | 0.00 | 0.00 | 0.00 | 72 | 1008.7 |
| 20260508232023 | 80 | 140 | 4.0 | 11.0 | 0.00 | 0.00 | 0.00 | 72 | 1008.7 |
| 20260508231520 | 80 | 163 | 4.0 | 9.0 | 0.00 | 0.00 | 0.00 | 72 | 1008.7 |
| 20260508231021 | 80 | 137 | 3.0 | 7.0 | 0.00 | 0.00 | 0.00 | 72 | 1008.8 |
| 20260508230521 | 80 | 131 | 3.0 | 7.0 | 0.00 | 0.00 | 0.00 | 72 | 1008.8 |
| 20260508230020 | 80 | 150 | 4.0 | 9.0 | 0.00 | 0.00 | 0.00 | 72 | 1008.8 |
| 20260508225519 | 80 | 191 | 4.0 | 9.0 | 0.00 | 0.00 | 0.00 | 71 | 1008.8 |
| 20260508225020 | 80 | 142 | 3.0 | 6.0 | 0.00 | 0.00 | 0.00 | 71 | 1008.9 |
| 20260508224520 | 80 | 125 | 3.0 | 9.0 | 0.00 | 0.00 | 0.00 | 71 | 1008.8 |
| 20260508224020 | 80 | 149 | 3.0 | 9.0 | 0.00 | 0.00 | 0.00 | 70 | 1008.8 |
| 20260508223520 | 80 | 180 | 3.0 | 7.0 | 0.00 | 0.00 | 0.00 | 70 | 1008.8 |
| 20260508223015 | 80 | 162 | 3.0 | 9.0 | 0.00 | 0.00 | 0.00 | 70 | 1008.8 |
| 20260508222507 | 81 | 141 | 3.0 | 9.0 | 0.00 | 0.00 | 0.00 | 70 | 1008.8 |
| 20260508222002 | 80 | 117 | 3.0 | 9.0 | 0.00 | 0.00 | 0.00 | 71 | 1008.9 |
| 20260508221726 | 80 | 169 | 3.0 | 9.0 | 0.00 | 0.00 | 0.00 | 70 | 1008.9 |
| 20260508221221 | 80 | 173 | 3.0 | 7.0 | 0.00 | 0.00 | 0.00 | 70 | 1008.9 |
| 20260508220444 | 80 | 166 | 3.0 | 6.0 | 0.00 | 0.00 | 0.00 | 70 | 1009.0 |
| 20260508215938 | 81 | 152 | 3.0 | 8.0 | 0.00 | 0.00 | 0.00 | 70 | 1009.0 |
| 20260508215432 | 81 | 150 | 3.0 | 9.0 | 0.00 | 0.00 | 0.00 | 70 | 1009.0 |
| 20260508215159 | 81 | 188 | 3.0 | 9.0 | 0.00 | 0.00 | 0.00 | 70 | 1009.0 |
| 20260508214420 | 80 | 148 | 4.0 | 9.0 | 0.00 | 0.00 | 0.00 | 70 | 1009.0 |
| 20260508213914 | 80 | 169 | 3.0 | 9.0 | 0.00 | 0.00 | 0.00 | 70 | 1009.0 |
| 20260508213408 | 80 | 144 | 2.0 | 6.0 | 0.00 | 0.00 | 0.00 | 71 | 1009.1 |
| 20260508212901 | 80 | 150 | 3.0 | 9.0 | 0.00 | 0.00 | 0.00 | 70 | 1009.1 |
| 20260508212354 | 80 | 137 | 4.0 | 10.0 | 0.00 | 0.00 | 0.00 | 70 | 1009.3 |
| 20260508211849 | 80 | 153 | 3.0 | 10.0 | 0.00 | 0.00 | 0.00 | 70 | 1009.2 |
| 20260508211344 | 80 | 116 | 3.0 | 8.0 | 0.00 | 0.00 | 0.00 | 70 | 1009.3 |
| 20260508211338 | 80 | 145 | 3.0 | 8.0 | 0.00 | 0.00 | 0.00 | 69 | 1009.4 |
| 20260508210330 | 80 | 144 | 3.0 | 8.0 | 0.00 | 0.00 | 0.00 | 69 | 1009.6 |
| 20260508205824 | 80 | 96 | 3.0 | 8.0 | 0.00 | 0.00 | 0.00 | 69 | 1009.7 |
| 20260508205318 | 80 | 142 | 3.0 | 8.0 | 0.00 | 0.00 | 0.00 | 69 | 1009.7 |
| 20260508204812 | 81 | 167 | 3.0 | 8.0 | 0.00 | 0.00 | 0.00 | 68 | 1009.7 |
| 20260508204306 | 81 | 80 | 3.0 | 6.0 | 0.00 | 0.00 | 0.00 | 67 | 1009.7 |
| 20260508203800 | 81 | 133 | 4.0 | 10.0 | 0.00 | 0.00 | 0.00 | 68 | 1009.8 |
| 20260508203254 | 82 | 140 | 3.0 | 10.0 | 0.00 | 0.00 | 0.00 | 66 | 1009.8 |
| 20260508202748 | 82 | 113 | 2.0 | 8.0 | 0.00 | 0.00 | 0.00 | 67 | 1009.9 |
| 20260508202242 | 82 | 136 | 3.0 | 6.0 | 0.00 | 0.00 | 0.00 | 68 | 1009.9 |
| 20260508201736 | 81 | 135 | 3.0 | 9.0 | 0.00 | 0.00 | 0.00 | 67 | 1010.0 |
| 20260508201230 | 81 | 132 | 3.0 | 9.0 | 0.00 | 0.00 | 0.00 | 68 | 1010.0 |
| 20260508200724 | 81 | 142 | 3.0 | 9.0 | 0.00 | 0.00 | 0.00 | 67 | 1010.0 |
| 20260508200218 | 81 | 130 | 3.0 | 9.0 | 0.00 | 0.00 | 0.00 | 67 | 1010.2 |
| 20260508195712 | 81 | 36 | 3.0 | 9.0 | 0.00 | 0.00 | 0.00 | 67 | 1010.0 |
| 20260508195205 | 81 | 163 | 4.0 | 9.0 | 0.00 | 0.00 | 0.00 | 67 | 1010.1 |
| 20260508194700 | 81 | 134 | 3.0 | 9.0 | 0.00 | 0.00 | 0.00 | 66 | 1010.2 |
| 20260508194153 | 81 | 192 | 3.0 | 9.0 | 0.00 | 0.00 | 0.00 | 67 | 1010.3 |
| 20260508193648 | 81 | 134 | 3.0 | 7.0 | 0.00 | 0.00 | 0.00 | 69 | 1010.4 |
| 20260508193142 | 80 | 157 | 3.0 | 7.0 | 0.00 | 0.00 | 0.00 | 69 | 1010.4 |
| 20260508192636 | 79 | 59 | 3.0 | 7.0 | 0.00 | 0.00 | 0.00 | 69 | 1010.5 |
| 20260508192129 | 79 | 73 | 3.0 | 7.0 | 0.00 | 0.00 | 0.00 | 68 | 1010.7 |
| 20260508191855 | 79 | 153 | 3.0 | 7.0 | 0.00 | 0.00 | 0.00 | 68 | 1010.8 |
| 20260508191118 | 79 | 128 | 3.0 | 7.0 | 0.00 | 0.00 | 0.00 | 68 | 1010.9 |
| 20260508190614 | 79 | 126 | 3.0 | 7.0 | 0.00 | 0.00 | 0.00 | 68 | 1010.9 |
| 20260508190609 | 79 | 148 | 3.0 | 7.0 | 0.00 | 0.00 | 0.00 | 67 | 1010.8 |
| 20260508185606 | 79 | 136 | 3.0 | 8.0 | 0.00 | 0.00 | 0.00 | 67 | 1010.9 |
| 20260508185102 | 79 | 104 | 3.0 | 8.0 | 0.00 | 0.00 | 0.00 | 67 | 1011.0 |
| 20260508184603 | 79 | 57 | 3.0 | 7.0 | 0.00 | 0.00 | 0.00 | 68 | 1010.9 |
| 20260508184103 | 79 | 96 | 3.0 | 7.0 | 0.00 | 0.00 | 0.00 | 67 | 1011.0 |
| 20260508183602 | 79 | 133 | 3.0 | 7.0 | 0.00 | 0.00 | 0.00 | 68 | 1011.1 |
| 20260508183101 | 78 | 144 | 3.0 | 8.0 | 0.00 | 0.00 | 0.00 | 68 | 1011.2 |
| 20260508182830 | 78 | 135 | 3.0 | 8.0 | 0.00 | 0.00 | 0.00 | 68 | 1011.5 |
| 20260508182059 | 78 | 145 | 3.0 | 9.0 | 0.00 | 0.00 | 0.00 | 69 | 1011.6 |
| 20260508181603 | 78 | 133 | 4.0 | 8.0 | 0.00 | 0.00 | 0.00 | 67 | 1011.6 |
| 20260508181558 | 78 | 40 | 4.0 | 9.0 | 0.00 | 0.00 | 0.00 | 68 | 1011.5 |
| 20260508181215 | 78 | 163 | 3.0 | 8.0 | 0.00 | 0.00 | 0.00 | 67 | 1011.7 |
| 20260508180324 | 78 | 188 | 2.0 | 8.0 | 0.00 | 0.00 | 0.00 | 68 | 1011.7 |
| 20260508175553 | 78 | 135 | 3.0 | 8.0 | 0.00 | 0.00 | 0.00 | 66 | 1011.8 |
| 20260508175053 | 78 | 161 | 3.0 | 8.0 | 0.00 | 0.00 | 0.00 | 65 | 1011.8 |
| 20260508174554 | 79 | 143 | 2.0 | 6.0 | 0.00 | 0.00 | 0.00 | 64 | 1011.8 |
| 20260508174053 | 80 | 33 | 3.0 | 7.0 | 0.00 | 0.00 | 0.00 | 64 | 1011.8 |
| 20260508173554 | 80 | 152 | 2.0 | 7.0 | 0.00 | 0.00 | 0.00 | 64 | 1011.8 |
| 20260508173054 | 80 | 78 | 2.0 | 6.0 | 0.00 | 0.00 | 0.00 | 65 | 1011.8 |
| 20260508172822 | 80 | 346 | 1.0 | 4.0 | 0.00 | 0.00 | 0.00 | 64 | 1012.0 |
| 20260508172049 | 80 | 348 | 2.0 | 6.0 | 0.00 | 0.00 | 0.00 | 64 | 1012.1 |
| 20260508171550 | 79 | 347 | 2.0 | 6.0 | 0.00 | 0.00 | 0.00 | 66 | 1012.1 |
| 20260508171049 | 79 | 5 | 1.0 | 5.0 | 0.00 | 0.00 | 0.00 | 68 | 1012.0 |
| 20260508170550 | 78 | 351 | 1.0 | 5.0 | 0.00 | 0.00 | 0.00 | 68 | 1012.0 |
| 20260508170054 | 77 | 0 | 2.0 | 6.0 | 0.00 | 0.00 | 0.00 | 69 | 1012.1 |
| 20260508170049 | 78 | 355 | 2.0 | 6.0 | 0.00 | 0.00 | 0.00 | 69 | 1012.1 |
| 20260508165049 | 77 | 30 | 2.0 | 8.0 | 0.00 | 0.00 | 0.00 | 68 | 1012.2 |
| 20260508164548 | 76 | 15 | 2.0 | 8.0 | 0.00 | 0.00 | 0.00 | 70 | 1012.1 |
| 20260508164048 | 75 | 5 | 1.0 | 6.0 | 0.00 | 0.00 | 0.00 | 72 | 1012.2 |
| 20260508163551 | 74 | 98 | 0.0 | 3.0 | 0.00 | 0.00 | 0.00 | 73 | 1012.2 |
| 20260508163049 | 74 | 153 | 0.0 | 6.0 | 0.00 | 0.00 | 0.00 | 72 | 1012.3 |
| 20260508162549 | 73 | 153 | 1.0 | 6.0 | 0.00 | 0.00 | 0.00 | 72 | 1012.5 |
| 20260508162048 | 73 | 153 | 2.0 | 7.0 | 0.00 | 0.00 | 0.00 | 73 | 1012.6 |
| 20260508161550 | 72 | 134 | 2.0 | 7.0 | 0.00 | 0.00 | 0.00 | 73 | 1012.9 |
| 20260508161045 | 71 | 96 | 1.0 | 3.0 | 0.00 | 0.00 | 0.00 | 75 | 1012.9 |
| 20260508160546 | 71 | 96 | 0.0 | 3.0 | 0.00 | 0.00 | 0.00 | 74 | 1012.9 |
| 20260508160316 | 70 | 97 | 0.0 | 3.0 | 0.00 | 0.00 | 0.00 | 73 | 1013.0 |
| 20260508155545 | 70 | 97 | 1.0 | 3.0 | 0.00 | 0.00 | 0.00 | 73 | 1013.1 |
| 20260508155046 | 70 | 96 | 1.0 | 3.0 | 0.00 | 0.00 | 0.00 | 73 | 1013.2 |
| 20260508154545 | 70 | 95 | 1.0 | 3.0 | 0.00 | 0.00 | 0.00 | 74 | 1013.2 |
| 20260508154045 | 70 | 95 | 0.0 | 3.0 | 0.00 | 0.00 | 0.00 | 74 | 1013.3 |
| 20260508153545 | 69 | 96 | 0.0 | 3.0 | 0.00 | 0.00 | 0.00 | 74 | 1013.4 |
| 20260508153047 | 69 | 96 | 1.0 | 3.0 | 0.00 | 0.00 | 0.00 | 75 | 1013.3 |
| 20260508152545 | 69 | 94 | 1.0 | 3.0 | 0.00 | 0.00 | 0.00 | 75 | 1013.5 |
| 20260508152044 | 68 | 94 | 1.0 | 3.0 | 0.00 | 0.00 | 0.00 | 75 | 1013.5 |
| 20260508151546 | 68 | 94 | 1.0 | 3.0 | 0.00 | 0.00 | 0.00 | 75 | 1013.5 |
| 20260508151046 | 68 | 128 | 1.0 | 4.0 | 0.00 | 0.00 | 0.00 | 75 | 1013.6 |
| 20260508150545 | 68 | 127 | 2.0 | 4.0 | 0.00 | 0.00 | 0.00 | 75 | 1013.6 |
| 20260508150045 | 67 | 152 | 2.0 | 7.0 | 0.00 | 0.00 | 0.00 | 76 | 1013.7 |
| 20260508145545 | 67 | 148 | 2.0 | 7.0 | 0.00 | 0.00 | 0.00 | 75 | 1013.8 |
| 20260508145043 | 67 | 137 | 2.0 | 5.0 | 0.00 | 0.00 | 0.00 | 75 | 1013.8 |
| 20260508144543 | 67 | 135 | 3.0 | 6.0 | 0.00 | 0.00 | 0.00 | 76 | 1013.7 |
| 20260508144309 | 66 | 153 | 3.0 | 6.0 | 0.00 | 0.00 | 0.00 | 76 | 1013.7 |
| 20260508143531 | 66 | 144 | 2.0 | 5.0 | 0.00 | 0.00 | 0.00 | 76 | 1013.7 |
| 20260508143026 | 66 | 142 | 2.0 | 5.0 | 0.00 | 0.00 | 0.00 | 77 | 1013.7 |
| 20260508142520 | 65 | 142 | 3.0 | 6.0 | 0.00 | 0.00 | 0.00 | 77 | 1013.5 |
| 20260508142013 | 65 | 98 | 2.0 | 6.0 | 0.00 | 0.00 | 0.00 | 77 | 1013.5 |
| 20260508141507 | 65 | 161 | 2.0 | 5.0 | 0.00 | 0.00 | 0.00 | 78 | 1013.7 |
| 20260508141233 | 65 | 109 | 1.0 | 4.0 | 0.00 | 0.00 | 0.00 | 78 | 1013.8 |
| 20260508140455 | 64 | 94 | 1.0 | 4.0 | 0.00 | 0.00 | 0.00 | 78 | 1013.7 |
| 20260508140220 | 64 | 92 | 2.0 | 4.0 | 0.00 | 0.00 | 0.00 | 78 | 1013.8 |
| 20260508135444 | 64 | 34 | 2.0 | 4.0 | 0.00 | 0.00 | 0.00 | 78 | 1013.8 |
| 20260508134937 | 64 | 25 | 2.0 | 4.0 | 0.00 | 0.00 | 0.00 | 78 | 1013.8 |
| 20260508134431 | 64 | 16 | 1.0 | 4.0 | 0.00 | 0.00 | 0.00 | 79 | 1013.9 |
| 20260508133925 | 64 | 17 | 1.0 | 3.0 | 0.00 | 0.00 | 0.00 | 79 | 1014.0 |
| 20260508133419 | 64 | 14 | 1.0 | 3.0 | 0.00 | 0.00 | 0.00 | 79 | 1013.9 |
| 20260508132913 | 63 | 13 | 0.0 | 3.0 | 0.00 | 0.00 | 0.00 | 78 | 1014.0 |
| 20260508132407 | 63 | 13 | 0.0 | 2.0 | 0.00 | 0.00 | 0.00 | 79 | 1014.1 |
| 20260508131901 | 63 | 13 | 0.0 | 2.0 | 0.00 | 0.00 | 0.00 | 79 | 1014.2 |
| 20260508131356 | 63 | 13 | 0.0 | 2.0 | 0.00 | 0.00 | 0.00 | 79 | 1014.1 |
| 20260508130849 | 63 | 13 | 0.0 | 3.0 | 0.00 | 0.00 | 0.00 | 79 | 1013.7 |
| 20260508130343 | 63 | 13 | 0.0 | 3.0 | 0.00 | 0.00 | 0.00 | 78 | 1013.8 |
| 20260508125837 | 63 | 13 | 0.0 | 1.0 | 0.00 | 0.00 | 0.00 | 78 | 1013.8 |
| 20260508125331 | 63 | 13 | 0.0 | 2.0 | 0.00 | 0.00 | 0.00 | 78 | 1013.9 |
| 20260508124825 | 63 | 13 | 1.0 | 3.0 | 0.00 | 0.00 | 0.00 | 78 | 1014.0 |
| 20260508124319 | 63 | 13 | 1.0 | 3.0 | 0.00 | 0.00 | 0.00 | 78 | 1014.0 |
| 20260508123813 | 63 | 13 | 0.0 | 2.0 | 0.00 | 0.00 | 0.00 | 78 | 1014.2 |
| 20260508123538 | 63 | 13 | 0.0 | 2.0 | 0.00 | 0.00 | 0.00 | 78 | 1014.0 |
| 20260508122801 | 63 | 13 | 1.0 | 3.0 | 0.00 | 0.00 | 0.00 | 78 | 1013.9 |
| 20260508122255 | 63 | 13 | 1.0 | 3.0 | 0.00 | 0.00 | 0.00 | 78 | 1013.9 |
| 20260508121749 | 63 | 13 | 0.0 | 4.0 | 0.00 | 0.00 | 0.00 | 78 | 1013.9 |
| 20260508121245 | 63 | 13 | 0.0 | 4.0 | 0.00 | 0.00 | 0.00 | 78 | 1014.0 |
| 20260508120736 | 63 | 14 | 0.0 | 0.0 | 0.00 | 0.00 | 0.00 | 79 | 1014.2 |
| 20260508120231 | 63 | 14 | 0.0 | 0.0 | 0.00 | 0.00 | 0.00 | 78 | 1014.4 |
| 20260508115725 | 63 | 14 | 0.0 | 2.0 | 0.00 | 0.00 | 0.00 | 79 | 1014.4 |
| 20260508115219 | 63 | 14 | 0.0 | 2.0 | 0.00 | 0.00 | 0.00 | 79 | 1014.4 |
| 20260508114713 | 63 | 14 | 0.0 | 1.0 | 0.00 | 0.00 | 0.00 | 78 | 1014.5 |
| 20260508114208 | 63 | 14 | 0.0 | 1.0 | 0.00 | 0.00 | 0.00 | 78 | 1014.6 |
| 20260508113701 | 63 | 14 | 0.0 | 1.0 | 0.00 | 0.00 | 0.00 | 78 | 1014.5 |
| 20260508113426 | 63 | 14 | 0.0 | 0.0 | 0.00 | 0.00 | 0.00 | 78 | 1014.7 |
| 20260508112649 | 63 | 14 | 0.0 | 0.0 | 0.00 | 0.00 | 0.00 | 78 | 1014.6 |
| 20260508112145 | 63 | 14 | 0.0 | 1.0 | 0.00 | 0.00 | 0.00 | 78 | 1014.6 |
| 20260508112140 | 63 | 14 | 0.0 | 1.0 | 0.00 | 0.00 | 0.00 | 78 | 1014.5 |
| 20260508111132 | 62 | 14 | 0.0 | 2.0 | 0.00 | 0.00 | 0.00 | 78 | 1014.5 |
| 20260508110627 | 63 | 14 | 0.0 | 2.0 | 0.00 | 0.00 | 0.00 | 78 | 1014.4 |
| 20260508110622 | 62 | 14 | 0.0 | 0.0 | 0.00 | 0.00 | 0.00 | 78 | 1014.4 |
| 20260508105612 | 62 | 14 | 0.0 | 0.0 | 0.00 | 0.00 | 0.00 | 78 | 1014.4 |